Date,TemperatureHighF,TemperatureAvgF,TemperatureLowF,DewpointHighF,DewpointAvgF,DewpointLowF,HumidityHigh,HumidityAvg,HumidityLow,PressureMaxIn,PressureMinIn,WindSpeedMaxMPH,WindSpeedAvgMPH,GustSpeedMaxMPH,PrecipitationSumIn
2014-1-1,16.7,11.8,7.2,7.6,5.1,2.1,81,74,64,30.36,30.15,24,4,24,0.00
2014-1-2,10.5,3.8,-4.0,5.2,0.0,-8.1,86,84,77,30.35,29.90,15,3,22,0.00
2014-1-3,3.2,-1.2,-6.8,-1.3,-6.1,-12.9,85,79,71,30.38,29.82,18,7,27,0.00
2014-1-4,21.2,6.9,-8.0,5.1,-3.2,-13.8,78,64,47,30.46,30.25,17,5,23,0.00
2014-1-5,36.5,23.8,12.6,25.6,14.2,4.0,94,68,42,30.31,29.94,9,3,12,0.01
2014-1-6,49.9,31.9,20.2,48.8,29.0,12.6,96,89,68,29.94,29.27,21,6,27,0.42
2014-1-7,20.2,4.4,-0.2,13.1,-7.4,-13.4,76,57,47,30.13,29.43,26,10,31,0.00
2014-1-8,16.7,7.8,0.5,1.5,-2.9,-10.5,71,61,48,30.43,30.12,13,5,18,0.00
2014-1-9,22.2,14.4,8.7,6.8,3.8,0.9,70,62,49,30.62,30.39,14,4,20,0.00
2014-1-10,30.7,22.3,11.8,27.3,18.5,4.2,94,85,66,30.55,30.25,11,2,17,0.00
2014-1-11,52.1,38.2,27.8,51.3,37.1,26.6,100,96,94,30.25,29.19,15,4,25,0.47
2014-1-12,47.7,36.9,31.7,46.6,27.9,22.0,100,70,60,29.89,29.22,23,9,34,0.00
2014-1-13,46.5,36.8,28.1,32.8,26.5,22.3,79,67,45,30.06,29.82,18,6,27,0.00
2014-1-14,43.4,40.4,36.3,39.6,36.5,32.8,95,86,68,29.82,29.60,14,4,16,0.53
2014-1-15,41.6,35.6,29.5,35.3,31.0,27.7,93,84,64,29.95,29.71,11,2,16,0.00
2014-1-16,35.0,32.4,29.9,31.0,29.5,28.2,95,89,84,29.89,29.82,4,0,6,0.00
2014-1-17,37.1,31.3,27.6,29.5,25.3,21.8,95,79,55,29.92,29.85,14,3,16,0.04
2014-1-18,30.3,28.0,25.9,27.5,24.9,22.6,100,88,78,29.89,29.63,6,1,11,0.00
2014-1-19,27.0,24.8,23.1,25.5,20.8,17.5,94,85,73,29.68,29.46,19,7,24,0.00
2014-1-20,31.8,24.7,7.8,26.8,18.5,-0.9,89,77,64,29.84,29.45,19,7,25,0.05
2014-1-21,7.8,3.0,-0.9,-1.3,-6.7,-9.1,75,63,53,30.03,29.83,12,4,17,0.00
2014-1-22,9.0,1.0,-5.3,-5.8,-10.2,-15.0,68,59,48,29.92,29.70,20,7,28,0.00
2014-1-23,11.8,3.7,-4.1,-3.4,-7.8,-11.8,70,59,43,30.13,29.90,13,5,18,0.00
2014-1-24,10.2,3.7,-4.3,-3.0,-7.9,-11.6,73,59,39,30.23,29.98,15,6,20,0.00
2014-1-25,24.2,16.3,8.5,19.3,8.3,-3.2,90,71,54,29.98,29.28,24,8,39,0.00
2014-1-26,16.3,10.2,4.2,13.1,-2.4,-11.1,87,57,42,29.81,29.29,21,8,32,0.00
2014-1-27,34.4,19.8,9.5,28.3,9.9,-4.6,92,66,40,29.94,29.49,27,6,31,0.00
2014-1-28,12.4,7.2,1.5,-1.6,-7.3,-10.8,74,51,37,30.25,29.94,14,5,22,0.00
2014-1-29,18.7,10.2,4.5,-2.7,-6.1,-9.2,64,48,30,30.20,29.93,20,4,25,0.00
2014-1-30,23.8,14.2,5.0,6.5,1.6,-3.5,77,58,44,30.40,30.12,13,4,16,0.00
2014-1-31,32.2,25.4,14.2,19.2,13.7,4.4,82,61,44,30.16,29.98,15,6,23,0.00
2014-2-1,37.3,30.5,25.2,29.1,22.3,17.4,93,72,54,30.31,29.95,15,3,21,0.00
2014-2-2,42.2,36.2,32.8,35.0,31.2,27.0,90,82,68,30.02,29.82,11,3,19,0.02
2014-2-3,32.8,26.4,21.2,26.9,16.9,12.7,81,67,59,30.26,30.02,10,3,16,0.00
2014-2-4,30.8,23.0,14.8,15.0,11.8,9.2,79,63,45,30.43,30.25,8,1,11,0.00
2014-2-5,24.5,19.9,18.3,17.9,15.8,11.5,91,85,61,30.29,29.67,12,3,21,0.00
2014-2-6,20.8,14.3,7.0,15.6,8.8,2.6,92,79,64,30.23,29.93,11,4,21,0.06
2014-2-7,23.5,15.8,9.4,8.9,4.8,-0.7,83,62,48,30.20,30.11,18,5,21,0.00
2014-2-8,24.2,15.8,5.6,4.7,1.3,-3.9,64,53,39,30.24,30.12,13,3,18,0.00
2014-2-9,24.4,18.1,11.7,16.9,9.8,4.3,90,70,53,30.16,29.91,10,2,13,0.00
2014-2-10,18.8,15.4,10.3,15.8,7.6,2.0,90,71,54,30.17,29.88,17,5,24,0.00
2014-2-11,15.8,10.3,3.6,2.9,0.5,-4.9,80,64,51,30.43,30.17,12,4,20,0.00
2014-2-12,25.3,13.3,-0.1,0.1,-4.7,-8.1,69,46,29,30.55,30.39,18,3,23,0.00
2014-2-13,28.5,19.4,12.3,27.0,14.4,-4.0,94,82,47,30.39,29.11,14,5,29,0.00
2014-2-14,30.0,25.4,20.6,28.7,23.0,18.4,95,91,82,29.68,28.88,21,7,30,0.00
2014-2-15,25.8,24.3,22.5,23.4,20.9,18.1,92,87,80,29.83,29.53,16,3,26,0.00
2014-2-16,23.7,17.9,11.0,19.3,6.1,-4.4,84,60,46,29.97,29.54,24,9,44,0.00
2014-2-17,20.1,12.0,5.4,-3.5,-5.8,-7.8,57,44,33,30.36,29.97,20,7,30,0.00
2014-2-18,21.9,13.9,7.2,19.4,6.4,-7.6,91,73,46,30.33,29.98,10,2,17,0.00
2014-2-19,29.9,23.1,17.2,28.4,20.3,14.5,100,89,81,30.09,29.75,8,2,14,0.00
2014-2-20,42.7,34.8,29.9,31.0,26.6,21.2,94,74,42,30.17,29.82,21,4,24,0.41
2014-2-21,33.7,31.7,30.5,32.7,30.5,29.1,96,95,94,30.09,29.68,11,1,14,0.67
2014-2-22,45.4,38.0,31.3,31.3,23.8,18.0,96,59,38,29.89,29.78,20,9,33,0.10
2014-2-23,44.6,38.6,33.6,26.3,19.4,12.7,60,46,30,29.92,29.73,22,7,26,0.00
2014-2-24,34.6,23.2,13.9,18.5,9.2,4.8,70,55,38,29.89,29.69,18,8,29,0.00
2014-2-25,19.1,14.4,9.9,5.7,2.9,-0.7,72,60,46,29.92,29.84,23,5,30,0.00
2014-2-26,20.0,11.6,5.1,6.8,-0.1,-7.2,78,60,36,29.88,29.74,18,6,30,0.00
2014-2-27,19.0,10.6,2.6,10.8,-1.8,-8.7,83,57,40,29.87,29.57,20,6,30,0.00
2014-2-28,15.9,7.6,-0.2,-3.0,-10.9,-12.9,68,43,30,30.42,29.87,24,5,26,0.00
2014-3-1,25.8,16.9,4.4,13.0,-0.3,-11.9,61,47,37,30.43,30.06,16,4,20,0.00
2014-3-2,28.3,24.6,15.9,20.1,13.8,6.6,77,63,53,30.06,29.95,17,5,17,0.00
2014-3-3,16.2,11.0,5.3,6.3,-2.7,-9.3,80,55,34,30.27,29.98,17,5,21,0.00
2014-3-4,23.8,12.9,0.7,10.6,-3.6,-10.6,84,50,25,30.35,30.23,9,2,14,0.00
2014-3-5,18.5,14.2,6.5,14.9,8.7,-6.2,86,79,55,30.50,30.24,15,2,21,0.00
2014-3-6,27.8,15.0,1.7,-3.4,-10.0,-15.0,52,33,21,30.63,30.49,13,3,22,0.01
2014-3-7,36.4,23.9,12.1,12.4,2.6,-9.1,53,39,31,30.49,29.94,8,2,14,0.00
2014-3-8,45.4,33.0,25.5,25.7,21.0,11.6,81,62,44,29.94,29.69,18,5,21,0.00
2014-3-9,30.5,25.5,20.2,13.6,8.3,2.1,63,49,33,29.91,29.83,16,5,27,0.00
2014-3-10,35.8,27.9,20.3,27.0,19.6,8.7,89,72,52,29.84,29.58,9,2,12,0.01
2014-3-11,48.2,39.4,29.1,32.6,28.6,26.5,93,67,46,29.68,29.46,13,3,24,0.04
2014-3-12,38.3,33.3,23.4,31.8,29.5,21.4,95,87,65,29.68,29.06,14,3,18,0.89
2014-3-13,23.4,11.1,6.2,21.1,4.2,-4.0,92,74,55,29.91,29.03,27,12,35,0.00
2014-3-14,33.2,20.1,7.2,19.9,6.6,-5.3,64,55,47,30.14,29.84,18,8,29,0.00
2014-3-15,46.0,37.3,29.6,31.7,26.4,16.4,82,65,53,29.85,29.63,23,10,31,0.02
2014-3-16,29.3,20.2,10.5,17.5,4.1,-3.3,75,50,35,30.18,29.82,19,8,32,0.00
2014-3-17,23.1,13.8,5.4,-1.0,-5.5,-8.9,54,42,29,30.17,30.05,11,4,18,0.00
2014-3-18,35.6,22.4,9.2,8.4,-2.0,-6.9,50,35,18,30.33,30.15,8,1,12,0.00
2014-3-19,34.7,28.0,18.9,26.1,18.1,8.1,93,67,46,30.36,29.96,11,3,19,0.00
2014-3-20,40.1,33.1,27.6,37.7,27.9,23.0,96,82,59,29.99,29.59,19,6,32,0.55
2014-3-21,34.4,30.7,26.2,23.7,19.8,17.1,73,64,52,29.98,29.66,17,7,27,0.00
2014-3-22,43.3,30.6,21.9,32.8,21.5,16.4,92,69,55,30.02,29.62,32,5,32,0.00
2014-3-23,30.7,26.3,10.7,22.8,11.4,-3.4,74,54,32,30.07,29.87,18,7,25,0.00
2014-3-24,23.2,15.2,7.4,4.1,-2.4,-5.3,59,46,33,30.13,30.04,16,6,25,0.00
2014-3-25,30.1,20.8,10.1,11.1,6.2,2.0,69,54,37,30.11,29.95,16,4,23,0.00
2014-3-26,25.4,21.7,14.6,13.7,8.0,-2.2,70,56,40,30.00,29.66,32,11,45,0.00
2014-3-27,36.2,24.2,12.8,12.5,2.5,-2.9,51,39,27,30.30,30.00,17,7,30,0.00
2014-3-28,45.0,36.0,27.9,43.1,30.8,11.2,94,82,41,30.17,29.89,19,7,26,0.18
2014-3-29,45.6,40.1,33.4,43.1,35.2,31.9,95,83,65,30.23,29.99,18,5,21,0.40
2014-3-30,34.4,33.2,32.4,33.4,31.9,31.0,96,95,94,29.99,29.67,15,6,25,1.30
2014-3-31,33.7,31.0,27.5,31.0,27.0,24.3,94,85,75,30.04,29.71,23,5,32,0.16
2014-4-1,50.0,38.4,27.7,30.2,26.4,22.1,80,63,45,30.08,30.00,19,4,20,0.00
2014-4-2,53.2,41.7,32.1,35.1,29.0,22.4,82,62,39,30.07,29.97,11,3,18,0.00
2014-4-3,45.8,39.0,33.2,25.0,22.5,20.2,64,52,41,30.11,30.00,11,4,17,0.00
2014-4-4,43.1,34.4,28.8,29.6,24.4,20.2,93,68,47,30.13,29.88,16,4,26,0.21
2014-4-5,42.1,34.6,30.9,36.9,28.2,21.7,95,79,53,29.89,29.68,20,5,30,0.12
2014-4-6,48.5,37.8,28.7,24.3,20.8,17.7,69,52,32,30.15,29.88,22,6,30,0.00
2014-4-7,52.9,45.6,36.6,33.1,24.8,18.2,87,45,34,30.19,29.86,14,2,31,0.04
2014-4-8,55.1,42.1,35.5,52.5,39.4,30.4,97,90,75,29.86,29.26,17,5,27,0.24
2014-4-9,43.8,38.8,31.0,34.6,25.2,9.6,84,61,30,29.92,29.46,20,6,27,0.00
2014-4-10,58.0,43.4,28.3,30.6,21.5,11.1,58,43,26,30.08,29.91,21,9,33,0.00
2014-4-11,64.7,51.3,41.8,41.6,35.4,30.2,92,57,29,29.99,29.86,18,5,23,0.01
2014-4-12,60.4,50.4,38.6,39.5,33.1,26.8,92,55,33,30.17,29.94,13,3,24,0.00
2014-4-13,52.5,43.1,36.0,41.0,34.2,26.4,94,73,37,30.23,29.99,11,3,14,0.09
2014-4-14,71.1,56.9,34.4,56.3,48.4,32.9,95,75,49,29.99,29.77,35,10,42,0.00
2014-4-15,59.9,54.5,31.7,57.9,51.6,29.9,96,90,80,29.78,29.42,22,12,33,0.93
2014-4-16,33.2,27.1,19.7,29.8,18.2,12.8,94,70,49,30.59,29.67,25,8,28,0.01
2014-4-17,40.9,29.5,20.3,21.0,16.0,12.3,77,58,37,30.80,30.59,14,4,17,0.01
2014-4-18,41.9,33.4,23.3,28.9,24.8,19.5,85,71,56,30.65,30.21,13,1,14,0.00
2014-4-19,51.6,41.6,32.6,34.4,28.8,23.4,83,62,43,30.40,30.13,20,6,30,0.00
2014-4-20,55.6,43.7,31.8,25.1,21.0,15.9,66,43,24,30.48,30.27,11,2,17,0.00
2014-4-21,69.2,53.1,36.5,31.6,25.7,19.3,60,38,15,30.27,29.77,16,6,19,0.00
2014-4-22,71.1,56.5,46.3,49.7,38.7,25.1,92,53,32,29.77,29.40,19,4,22,0.02
2014-4-23,51.0,44.7,39.5,48.6,38.2,28.7,92,78,65,29.60,29.37,23,9,34,0.01
2014-4-24,48.4,40.9,32.9,28.9,24.2,18.6,66,51,41,29.92,29.60,32,14,42,0.00
2014-4-25,60.1,48.3,36.2,29.4,23.7,19.4,61,40,22,29.98,29.76,14,3,20,0.00
2014-4-26,49.8,39.3,35.1,38.3,35.0,28.4,96,86,45,29.82,29.71,13,3,15,0.43
2014-4-27,46.6,39.4,33.4,38.7,35.1,32.4,96,85,69,30.05,29.81,16,5,27,0.13
2014-4-28,52.5,45.1,37.3,40.5,35.6,32.5,85,70,54,30.20,29.99,17,7,28,0.00
2014-4-29,42.8,38.4,34.0,37.7,33.2,30.7,95,82,65,30.50,30.20,19,7,21,0.06
2014-4-30,38.3,35.4,33.6,35.6,33.9,31.6,96,94,89,30.51,30.18,14,5,18,0.65
2014-5-1,63.7,46.8,35.2,54.9,44.3,34.0,97,91,72,30.17,29.64,10,2,16,0.74
2014-5-2,57.6,51.4,43.7,44.9,37.7,35.0,79,60,46,29.76,29.62,15,5,26,0.00
2014-5-3,58.4,51.9,44.1,42.4,39.4,34.4,78,63,47,29.80,29.67,13,3,19,0.00
2014-5-4,50.4,45.8,41.1,42.5,38.0,34.4,91,75,60,29.67,29.47,25,8,32,0.03
2014-5-5,53.8,47.6,41.7,40.8,38.8,36.2,87,72,57,29.85,29.58,19,8,24,0.00
2014-5-6,55.4,47.5,39.6,36.0,31.4,25.8,82,56,34,30.02,29.81,15,6,25,0.00
2014-5-7,62.6,51.6,40.4,32.6,27.6,22.8,61,41,26,30.16,30.02,15,4,20,0.00
2014-5-8,70.4,57.4,44.2,48.1,30.5,21.6,77,37,22,30.15,30.01,8,1,14,0.00
2014-5-9,53.9,46.4,44.1,45.1,40.3,34.3,96,80,59,30.20,30.04,7,1,11,0.07
2014-5-10,74.9,58.7,45.8,63.2,52.5,44.7,97,82,51,30.04,29.70,17,4,22,0.04
2014-5-11,71.9,63.2,55.0,55.3,38.0,30.8,83,41,24,29.99,29.75,22,6,31,0.00
2014-5-12,79.8,67.9,55.2,45.6,41.2,36.7,54,39,26,30.05,29.93,19,3,20,0.00
2014-5-13,64.7,46.9,44.7,44.4,41.7,39.0,93,83,46,30.28,30.03,16,1,24,0.03
2014-5-14,71.9,55.5,42.2,49.4,43.0,38.2,88,65,40,30.28,30.18,9,2,15,0.00
2014-5-15,72.4,60.2,50.2,62.9,55.0,46.8,93,84,69,30.23,30.12,12,1,18,0.00
2014-5-16,62.8,60.7,59.0,60.5,59.3,57.3,97,95,88,30.13,29.88,13,3,19,0.17
2014-5-17,65.8,58.4,48.2,61.1,47.1,32.4,97,70,32,30.02,29.73,20,4,21,1.37
2014-5-18,63.9,53.3,44.6,38.7,34.9,29.6,78,52,30,30.09,30.00,16,5,20,0.00
2014-5-19,59.0,51.9,44.2,42.5,35.3,30.7,80,53,41,30.06,29.99,19,5,25,0.00
2014-5-20,68.6,58.8,48.4,42.6,39.1,37.0,80,49,33,30.01,29.91,22,6,26,0.00
2014-5-21,72.8,60.7,47.3,51.4,43.5,38.3,79,55,32,29.95,29.84,9,1,16,0.00
2014-5-22,57.7,52.4,47.6,53.6,49.8,46.0,96,91,79,29.89,29.80,9,1,13,0.50
2014-5-23,51.8,49.8,46.5,50.7,49.0,45.7,97,97,96,29.96,29.82,12,1,14,1.19
2014-5-24,63.3,52.1,46.8,54.5,49.4,45.9,98,91,64,30.03,29.93,10,0,16,0.25
2014-5-25,73.5,59.5,48.4,55.6,50.8,46.5,94,75,41,30.03,29.93,8,1,13,0.00
2014-5-26,73.9,64.6,56.2,55.2,52.1,47.1,79,65,49,29.94,29.74,13,2,23,0.00
2014-5-27,68.5,56.1,41.5,59.0,49.5,40.4,96,80,58,29.92,29.76,13,3,17,0.77
2014-5-28,46.6,43.8,41.6,45.5,42.7,40.5,97,96,94,30.21,29.90,14,2,16,0.36
2014-5-29,63.1,52.1,38.8,45.1,41.0,36.7,96,69,40,30.23,30.09,6,1,11,0.00
2014-5-30,66.8,55.0,46.2,51.1,46.5,41.4,94,75,48,30.09,29.96,15,1,16,0.15
2014-5-31,62.7,53.9,46.9,55.6,49.0,44.9,93,84,60,30.27,30.02,9,2,13,0.01
2014-6-1,72.7,61.2,47.3,52.7,44.3,39.8,91,58,32,30.31,30.16,6,0,10,0.01
2014-6-2,79.7,67.6,53.3,54.5,48.9,41.5,69,53,34,30.16,29.93,6,0,13,0.00
2014-6-3,79.1,67.0,56.7,62.7,55.7,51.1,85,68,47,29.95,29.81,11,2,17,0.00
2014-6-4,64.7,57.7,52.9,59.2,53.5,48.7,94,86,79,29.83,29.71,7,1,10,0.00
2014-6-5,63.0,55.9,53.1,58.7,54.0,52.0,97,93,76,29.74,29.64,6,0,9,0.04
2014-6-6,68.3,59.6,52.4,55.1,52.3,50.3,94,78,59,29.85,29.67,15,4,22,0.07
2014-6-7,78.5,67.0,54.3,57.0,53.2,50.2,86,63,43,29.91,29.84,12,3,19,0.00
2014-6-8,82.0,71.0,58.5,60.1,53.9,49.2,75,56,33,29.91,29.81,4,0,11,0.00
2014-6-9,79.2,67.3,59.6,62.8,56.9,53.7,83,70,50,29.92,29.83,8,0,12,0.00
2014-6-10,74.2,63.8,57.8,64.1,58.0,51.3,94,82,67,30.07,29.88,14,1,16,0.01
2014-6-11,64.7,57.1,52.2,54.4,51.8,49.4,93,83,59,30.14,30.06,8,1,22,0.03
2014-6-12,58.6,54.9,52.1,56.7,52.6,48.1,96,92,82,30.13,30.03,6,2,10,0.08
2014-6-13,56.2,54.8,53.8,55.4,54.0,53.0,98,97,97,30.03,29.78,12,2,16,0.54
2014-6-14,69.9,59.5,53.8,60.9,54.7,48.7,100,85,57,29.89,29.77,11,1,15,0.01
2014-6-15,70.7,61.3,53.4,57.4,50.5,43.3,86,69,48,30.05,29.88,20,4,23,0.01
2014-6-16,79.4,67.1,54.5,54.0,49.1,45.4,76,54,31,30.11,29.97,9,1,11,0.00
2014-6-17,85.4,72.4,59.0,65.7,58.8,52.5,85,64,42,29.99,29.74,8,0,11,0.00
2014-6-18,75.5,69.7,63.9,65.3,61.3,56.6,95,76,57,29.90,29.62,14,3,23,0.33
2014-6-19,74.4,66.3,58.6,59.7,50.4,34.7,85,60,26,29.94,29.88,12,2,18,0.00
2014-6-20,65.6,58.9,51.5,46.5,43.1,38.9,72,57,40,29.95,29.87,12,3,23,0.00
2014-6-21,67.3,57.7,47.4,49.2,44.2,40.6,80,62,45,29.94,29.86,10,1,15,0.00
2014-6-22,73.0,62.3,50.4,51.9,47.5,41.7,75,59,41,30.00,29.90,7,1,13,0.00
2014-6-23,76.5,65.9,53.6,59.2,54.0,49.1,86,67,48,30.09,30.00,10,1,12,0.00
2014-6-24,74.3,67.0,59.1,62.0,57.7,54.1,85,73,59,30.08,29.91,15,3,24,0.00
2014-6-25,82.3,68.8,62.3,69.6,62.7,54.9,97,82,64,29.92,29.79,10,1,25,4.92
2014-6-26,73.6,66.6,60.7,67.3,64.1,58.7,97,92,76,29.97,29.74,9,1,13,0.49
2014-6-27,76.5,65.7,55.9,61.9,56.8,53.2,97,75,47,30.16,29.97,6,0,14,0.00
2014-6-28,79.2,69.6,58.1,62.8,53.7,46.0,90,60,32,30.23,30.16,5,0,10,0.00
2014-6-29,81.8,71.1,59.5,64.6,58.6,46.2,92,66,41,30.20,30.01,8,0,12,0.00
2014-6-30,83.4,72.2,60.0,67.8,63.3,57.2,91,74,56,30.02,29.85,7,1,14,0.00
2014-7-1,84.1,75.0,64.9,71.8,67.5,62.5,92,78,63,29.86,29.70,13,2,19,0.00
2014-7-2,86.4,73.8,66.6,75.6,68.7,65.1,96,85,65,29.86,29.74,8,1,12,0.39
2014-7-3,82.3,71.6,64.3,73.5,67.7,62.4,97,88,68,29.94,29.83,7,0,23,0.63
2014-7-4,66.1,63.4,56.9,64.4,61.9,54.3,97,95,90,29.95,29.80,15,2,24,0.56
2014-7-5,74.7,64.4,55.5,54.0,48.7,41.5,90,59,43,29.97,29.78,22,6,32,0.05
2014-7-6,78.3,68.5,58.6,56.6,52.5,47.4,74,58,38,29.95,29.80,11,1,22,0.00
2014-7-7,79.1,69.6,63.0,69.8,62.0,55.4,95,78,62,29.80,29.63,13,1,23,0.55
2014-7-8,81.2,73.3,64.9,70.9,67.5,63.4,96,83,67,29.73,29.57,11,2,18,0.09
2014-7-9,79.3,69.4,60.9,67.8,61.8,58.8,95,79,54,29.88,29.57,14,2,26,0.37
2014-7-10,76.2,66.5,57.5,59.9,54.9,49.4,95,69,44,30.12,29.88,12,1,15,0.01
2014-7-11,73.3,66.6,57.8,59.6,54.1,48.3,84,65,52,30.20,30.11,6,0,8,0.00
2014-7-12,82.0,70.1,56.6,64.4,59.0,52.3,88,69,49,30.18,30.04,4,0,10,0.00
2014-7-13,78.1,70.0,64.0,68.8,64.0,57.3,96,82,70,30.05,29.80,17,2,24,0.39
2014-7-14,81.6,72.7,65.9,70.1,66.6,63.3,96,82,56,29.85,29.78,7,1,14,0.01
2014-7-15,77.3,70.0,66.1,70.7,67.8,64.9,97,93,76,29.81,29.69,10,0,17,1.76
2014-7-16,73.8,67.3,62.3,67.1,63.6,55.9,97,88,72,29.82,29.68,6,0,11,1.06
2014-7-17,76.0,65.8,58.0,59.0,54.6,51.2,83,68,48,30.03,29.82,7,0,14,0.00
2014-7-18,77.2,66.2,54.9,58.0,54.1,50.4,89,67,46,30.20,30.03,5,0,10,0.00
2014-7-19,71.5,66.3,60.5,61.9,56.5,50.3,87,71,62,30.23,30.17,4,0,9,0.00
2014-7-20,72.2,64.2,58.8,60.1,57.1,53.2,97,79,54,30.18,30.11,7,1,10,0.00
2014-7-21,78.4,67.1,55.6,62.6,58.1,52.4,92,74,55,30.17,30.09,4,0,9,0.00
2014-7-22,83.9,73.7,63.1,69.1,64.5,58.6,91,74,57,30.11,29.90,7,0,12,0.00
2014-7-23,85.5,74.3,66.7,72.5,68.1,65.2,96,82,61,29.91,29.67,13,2,20,0.65
2014-7-24,73.9,66.3,58.7,65.9,57.7,48.9,96,75,54,29.87,29.71,10,2,18,0.07
2014-7-25,76.6,65.5,54.0,59.6,54.6,48.6,88,69,52,29.95,29.87,11,1,12,0.00
2014-7-26,77.0,67.2,59.0,63.0,57.1,54.3,89,71,48,29.93,29.81,6,0,12,0.00
2014-7-27,73.3,66.2,60.4,68.1,63.4,56.6,96,91,81,29.84,29.61,9,0,15,0.21
2014-7-28,76.4,66.4,59.9,70.0,64.1,57.3,97,93,73,29.62,29.38,10,1,17,1.14
2014-7-29,70.1,62.6,55.9,56.9,53.9,51.0,91,74,53,29.90,29.50,11,1,20,0.00
2014-7-30,72.4,63.2,55.9,58.5,53.9,48.6,88,72,54,30.00,29.90,4,0,6,0.00
2014-7-31,72.1,61.9,54.8,60.9,56.7,51.6,95,84,65,30.12,29.99,9,1,18,0.46
2014-8-1,78.7,67.2,57.7,67.3,62.1,56.6,97,85,58,30.18,30.11,8,0,10,0.01
2014-8-2,71.3,65.6,57.8,65.5,60.9,55.2,96,85,65,30.17,30.08,5,0,10,0.00
2014-8-3,74.3,63.9,54.4,65.1,59.7,53.0,96,86,71,30.09,30.00,6,0,9,0.00
2014-8-4,79.7,69.2,60.1,66.2,62.4,58.4,96,80,56,30.00,29.95,4,0,8,0.01
2014-8-5,81.1,70.6,61.6,67.7,62.5,57.7,94,77,54,29.99,29.85,5,0,8,0.02
2014-8-6,75.6,66.8,59.5,62.4,58.0,50.5,94,75,47,29.85,29.76,12,2,15,0.05
2014-8-7,68.8,60.5,54.6,57.8,52.6,49.1,92,76,56,29.92,29.81,10,1,18,0.04
2014-8-8,75.3,65.4,55.1,59.3,54.9,51.5,89,70,51,30.01,29.91,16,3,20,0.00
2014-8-9,78.5,69.0,58.6,61.0,55.8,52.4,82,64,41,30.07,29.98,14,1,14,0.00
2014-8-10,80.1,70.7,59.9,62.1,57.0,53.1,80,63,42,30.09,30.04,7,0,9,0.00
2014-8-11,78.9,69.9,59.1,65.4,60.9,56.8,92,74,54,30.09,30.03,13,0,16,0.01
2014-8-12,74.0,66.6,60.1,63.6,59.5,57.1,95,79,59,30.06,29.97,8,1,13,0.00
2014-8-13,63.6,60.8,57.5,61.2,59.3,56.4,96,95,88,29.97,29.61,19,4,30,3.35
2014-8-14,68.1,59.8,53.0,56.2,50.8,45.8,96,74,47,29.83,29.63,11,1,18,0.00
2014-8-15,63.6,56.6,51.6,52.5,50.2,46.6,91,79,65,29.88,29.80,11,0,14,0.00
2014-8-16,69.5,60.1,50.5,55.4,52.1,48.0,92,76,58,29.92,29.85,9,0,15,0.00
2014-8-17,69.3,61.4,55.6,59.6,54.5,51.6,88,78,62,29.85,29.75,13,2,21,0.00
2014-8-18,68.4,60.2,53.0,54.2,50.4,46.8,88,71,53,29.86,29.76,14,3,20,0.00
2014-8-19,74.9,62.4,49.7,55.7,50.9,46.6,89,68,46,29.93,29.83,8,0,9,0.00
2014-8-20,75.2,66.0,53.3,60.3,55.3,49.5,87,69,53,30.02,29.92,7,0,10,0.00
2014-8-21,63.1,58.5,53.5,58.2,54.7,51.7,94,87,75,30.08,30.00,4,0,9,0.43
2014-8-22,61.5,57.4,53.2,60.3,56.2,51.8,97,96,94,30.10,30.06,5,0,10,0.47
2014-8-23,68.0,61.6,55.6,58.5,56.2,53.6,95,83,67,30.12,30.07,7,0,10,0.00
2014-8-24,75.6,66.3,55.0,61.2,56.7,52.9,94,72,51,30.12,30.08,7,0,12,0.00
2014-8-25,82.6,72.1,61.3,63.8,58.5,55.0,83,64,40,30.13,30.06,5,0,8,0.00
2014-8-26,83.6,72.0,62.5,65.9,61.3,57.3,85,70,47,30.11,29.96,7,0,12,0.00
2014-8-27,81.2,71.4,62.5,70.2,64.6,59.8,92,79,69,29.96,29.80,8,1,15,0.00
2014-8-28,70.7,63.8,55.3,59.3,53.2,47.1,86,69,50,29.97,29.78,14,3,20,0.00
2014-8-29,72.2,61.4,51.9,56.7,52.8,47.8,91,74,54,30.21,29.97,10,1,17,0.00
2014-8-30,71.1,62.4,53.5,59.2,55.9,51.5,94,80,62,30.23,30.05,15,2,18,0.00
2014-8-31,77.3,69.3,62.5,69.7,65.5,59.0,95,88,76,30.06,29.89,9,1,17,0.11
2014-9-1,83.5,73.0,65.2,69.3,65.7,63.1,96,79,54,29.94,29.86,8,0,10,0.00
2014-9-2,82.2,72.6,66.1,72.7,68.5,62.6,96,87,69,29.88,29.65,8,0,11,0.17
2014-9-3,77.0,68.1,61.0,69.4,59.3,55.5,94,75,49,30.04,29.65,12,2,19,0.04
2014-9-4,79.2,67.8,55.5,64.3,58.7,52.1,91,74,54,30.15,30.05,8,0,16,0.00
2014-9-5,82.3,72.4,61.5,70.9,65.6,58.7,91,80,64,30.10,29.90,12,2,18,0.00
2014-9-6,81.9,71.4,60.9,71.6,66.0,57.0,93,83,69,29.89,29.70,13,2,25,0.02
2014-9-7,71.5,62.7,56.5,58.0,51.9,47.2,94,69,46,30.18,29.87,8,2,16,0.01
2014-9-8,68.0,60.2,52.9,55.0,50.2,46.8,85,70,55,30.35,30.19,7,1,13,0.00
2014-9-9,63.4,55.8,48.8,54.0,49.4,46.2,92,80,63,30.35,30.18,11,2,12,0.00
2014-9-10,64.7,56.7,51.9,56.8,53.4,50.5,96,89,73,30.18,29.99,3,0,8,0.00
2014-9-11,65.0,59.0,54.7,63.0,57.6,53.6,97,95,90,29.99,29.73,15,3,19,0.02
2014-11-20,36.2,28.9,21.7,20.1,15.9,11.1,66,58,46,29.88,29.73,16,7,27,0.00
2014-11-21,26.3,21.5,17.7,14.5,9.8,4.7,81,60,47,30.36,29.88,19,6,26,0.00
2014-11-22,36.2,26.2,15.6,24.4,11.9,6.2,79,56,37,30.37,30.01,14,7,25,0.00
2014-11-23,51.7,43.6,35.8,41.3,35.9,24.3,91,75,62,30.10,30.01,13,3,19,0.02
2014-11-24,61.0,51.4,36.6,58.2,46.8,30.6,97,85,64,30.04,29.49,27,9,38,0.57
2014-11-25,59.0,50.3,39.2,52.8,33.9,25.2,81,54,38,30.04,29.61,26,8,29,0.00
2014-11-26,39.4,32.2,28.1,27.9,26.7,23.4,95,81,60,30.17,29.73,14,3,21,0.00
2014-11-27,28.1,25.8,22.8,26.6,23.5,20.2,94,91,88,30.00,29.72,13,5,24,0.03
2014-11-28,27.5,22.0,16.0,21.1,16.7,10.1,92,80,64,30.18,29.98,14,3,21,0.06
2014-11-29,28.3,19.3,12.1,18.3,13.2,7.9,85,77,60,30.31,30.18,8,2,13,0.00
2014-11-30,43.9,36.9,22.7,36.2,31.2,17.8,90,80,70,30.21,29.97,18,8,31,0.02
2014-12-1,49.4,41.2,30.5,42.8,34.8,23.2,86,78,68,30.41,29.95,14,6,20,0.00
2014-12-2,30.2,24.6,19.3,23.2,17.5,10.9,92,74,58,30.67,30.41,13,4,19,0.00
2014-12-3,36.9,30.9,22.7,35.9,29.0,20.7,96,92,75,30.41,29.85,21,4,31,0.25
2014-12-4,32.5,28.6,19.8,25.7,18.7,11.0,77,66,54,30.52,30.03,15,5,24,0.01
2014-12-5,25.2,21.5,15.4,21.0,14.2,6.9,92,74,57,30.67,30.45,7,2,10,0.00
2014-12-6,34.1,30.2,23.1,33.0,28.6,21.1,96,94,87,30.45,30.13,21,3,27,0.56
2014-12-7,31.8,21.1,9.9,28.7,10.7,-3.2,88,65,44,30.69,30.26,22,9,34,0.03
2014-12-8,17.9,12.9,6.5,15.2,4.9,-4.6,90,70,48,30.78,30.56,10,2,13,0.00
2014-12-9,34.4,28.3,18.0,33.1,26.7,15.6,96,94,90,30.55,29.63,20,4,29,1.03
2014-12-10,34.9,33.7,31.8,33.9,32.6,30.8,96,96,95,29.63,29.42,15,3,24,1.00
2014-12-11,32.0,29.5,26.8,31.0,28.3,25.0,96,95,93,29.73,29.41,10,3,14,0.07
2014-12-12,31.3,27.3,24.8,27.0,24.5,22.9,93,89,82,29.88,29.73,12,3,17,0.05
2014-12-13,33.4,28.8,26.5,26.5,24.1,22.6,87,82,75,29.86,29.77,19,7,25,0.01
2014-12-14,35.6,29.6,26.0,28.4,25.2,22.1,92,84,74,29.90,29.76,15,3,18,0.03
2014-12-15,33.6,28.2,23.5,26.4,24.3,21.5,93,85,73,30.13,29.90,14,3,17,0.01
2014-12-16,31.1,28.3,23.7,29.8,26.6,21.8,95,93,90,30.14,29.94,5,0,8,0.00
2014-12-17,39.2,35.5,31.0,38.2,34.0,30.0,97,94,88,29.93,29.68,12,3,18,0.33
2014-12-18,34.7,31.7,28.2,30.6,27.7,22.8,94,85,77,29.84,29.67,16,7,24,0.01
2014-12-19,28.2,24.6,19.4,22.7,19.6,16.2,88,81,76,30.14,29.83,14,6,23,0.01
2014-12-20,28.9,23.8,16.2,21.6,17.8,13.1,89,78,65,30.31,30.15,7,1,11,0.00
2014-12-21,28.3,26.0,24.0,25.7,23.5,20.4,94,90,83,30.35,30.28,3,0,5,0.01
2014-12-22,31.5,28.8,26.6,28.8,27.0,25.1,95,93,86,30.39,30.27,7,1,9,0.01
2014-12-23,32.9,31.8,30.2,31.9,30.8,28.8,96,96,95,30.29,30.17,11,2,13,0.61
2014-12-24,35.5,33.9,32.8,34.7,33.0,31.8,97,97,96,30.17,29.55,6,2,10,0.68
2014-12-25,50.0,41.5,34.7,49.5,35.4,26.8,98,80,63,29.90,29.40,19,6,28,0.18
2014-12-26,41.4,36.9,32.9,30.3,28.6,27.2,80,72,64,30.12,29.91,13,6,21,0.00
2014-12-27,43.0,37.8,31.8,33.8,30.7,27.0,83,76,66,30.18,29.93,8,4,18,0.00
2014-12-28,43.6,39.0,31.0,40.1,33.0,21.0,94,79,66,29.93,29.69,16,6,23,0.17
2014-12-29,32.1,27.4,17.9,20.6,15.0,6.7,72,59,51,30.19,29.93,16,4,23,0.00
2014-12-30,20.9,15.5,10.4,6.8,1.4,-5.2,73,54,35,30.33,30.19,14,3,25,0.00
2014-12-31,20.5,14.1,8.3,9.8,4.5,-3.4,79,65,54,30.28,30.06,13,5,21,0.00
2015-1-1,25.7,19.2,12.7,10.2,6.6,3.6,68,58,47,30.05,29.85,20,7,27,0.00
2015-1-2,29.6,25.4,17.8,22.7,13.9,6.4,86,61,50,30.42,29.87,16,7,27,0.00